When you browse on this site, cookies collect data to enhance your experience and personalize the content and advertising you see.
Visit our Privacy Policy to learn more. By continuing to use the site, you agree to this use of cookies and data.
  • en Suisse
  • Liste des pays
  • À 7 jours
  • Température de l'eau
  • Carte satellitaire
  • Carte météo
  • Widgets météo
  • user-avatar
    Se connecter

    Météo par heure à Kuzminki

    Ce jour, 17 Juin, Lundi

    Heure Température Précipitation Vent Pression Humidité
    00:00 +15°C° 0 mm 1 m/s 745 mmHg 92%
    01:00 +15°C° 0 mm 1 m/s 745 mmHg 92%
    02:00 +14°C° 0 mm 1 m/s 745 mmHg 93%
    03:00 +14°C° 0 mm 1 m/s 745 mmHg 93%
    04:00 +14°C° 0 mm 1 m/s 745 mmHg 91%
    05:00 +15°C° 0 mm 1 m/s 745 mmHg 90%
    06:00 +16°C° 0 mm 1 m/s 745 mmHg 88%
    07:00 +16°C° 0 mm 0 m/s 745 mmHg 83%
    08:00 +18°C° 0 mm 0 m/s 746 mmHg 77%
    09:00 +19°C° 0 mm 0 m/s 746 mmHg 72%
    10:00 +22°C° 0 mm 1 m/s 746 mmHg 68%
    11:00 +23°C° 0 mm 1 m/s 746 mmHg 64%
    12:00 +24°C° 0 mm 2 m/s 746 mmHg 60%
    13:00 +24°C° 0.1 mm 2 m/s 745 mmHg 62%
    14:00 +24°C° 0.1 mm 3 m/s 745 mmHg 63%
    15:00 +25°C° 0.1 mm 3 m/s 745 mmHg 65%
    16:00 +24°C° 0.1 mm 3 m/s 745 mmHg 68%
    17:00 +24°C° 0.1 mm 3 m/s 745 mmHg 70%
    18:00 +24°C° 0.1 mm 2 m/s 744 mmHg 73%
    19:00 +21°C° 0 mm 2 m/s 744 mmHg 77%
    20:00 +20°C° 0 mm 2 m/s 744 mmHg 80%
    21:00 +19°C° 0 mm 1 m/s 744 mmHg 84%
    22:00 +19°C° 0 mm 1 m/s 744 mmHg 85%
    23:00 +17°C° 0 mm 2 m/s 744 mmHg 86%

    Demain, 18 Juin, Mardi

    Heure Température Précipitation Vent Pression Humidité
    00:00 +17°C° 0 mm 2 m/s 744 mmHg 88%
    01:00 +17°C° 0 mm 2 m/s 744 mmHg 88%
    02:00 +17°C° 0 mm 2 m/s 744 mmHg 89%
    03:00 +16°C° 0 mm 2 m/s 744 mmHg 90%
    04:00 +17°C° 0 mm 2 m/s 744 mmHg 89%
    05:00 +18°C° 0 mm 3 m/s 744 mmHg 88%
    06:00 +18°C° 0 mm 3 m/s 744 mmHg 88%
    07:00 +20°C° 0.2 mm 3 m/s 744 mmHg 85%
    08:00 +21°C° 0.2 mm 4 m/s 744 mmHg 82%
    09:00 +22°C° 0.2 mm 4 m/s 744 mmHg 79%
    10:00 +22°C° 1.1 mm 4 m/s 744 mmHg 80%
    11:00 +23°C° 1.1 mm 5 m/s 744 mmHg 81%
    12:00 +23°C° 1.1 mm 5 m/s 744 mmHg 82%
    13:00 +23°C° 0.3 mm 5 m/s 743 mmHg 83%
    14:00 +22°C° 0.3 mm 4 m/s 743 mmHg 84%
    15:00 +22°C° 0.3 mm 4 m/s 743 mmHg 85%
    16:00 +22°C° 0.1 mm 4 m/s 743 mmHg 85%
    17:00 +22°C° 0.1 mm 4 m/s 743 mmHg 84%
    18:00 +22°C° 0.1 mm 3 m/s 743 mmHg 84%
    19:00 +21°C° 0.1 mm 3 m/s 743 mmHg 87%
    20:00 +20°C° 0.1 mm 3 m/s 743 mmHg 89%
    21:00 +19°C° 0.1 mm 2 m/s 743 mmHg 92%
    22:00 +18°C° 0 mm 2 m/s 744 mmHg 91%
    23:00 +18°C° 0 mm 3 m/s 744 mmHg 90%

    Après-demain, 19 Juin, Mercredi

    Heure Température Précipitation Vent Pression Humidité
    00:00 +17°C° 0 mm 3 m/s 744 mmHg 89%
    01:00 +17°C° 0 mm 3 m/s 744 mmHg 90%
    02:00 +16°C° 0 mm 3 m/s 744 mmHg 91%
    03:00 +14°C° 0 mm 3 m/s 744 mmHg 91%
    04:00 +16°C° 0 mm 3 m/s 745 mmHg 90%
    05:00 +16°C° 0 mm 3 m/s 745 mmHg 89%
    06:00 +17°C° 0 mm 3 m/s 745 mmHg 88%
    07:00 +18°C° 0 mm 3 m/s 745 mmHg 84%
    08:00 +20°C° 0 mm 3 m/s 746 mmHg 79%
    09:00 +21°C° 0 mm 3 m/s 746 mmHg 75%
    10:00 +22°C° 0 mm 3 m/s 746 mmHg 69%
    11:00 +24°C° 0 mm 3 m/s 746 mmHg 63%
    12:00 +25°C° 0 mm 4 m/s 746 mmHg 58%
    13:00 +25°C° 0 mm 4 m/s 746 mmHg 58%
    14:00 +26°C° 0 mm 4 m/s 746 mmHg 58%
    15:00 +26°C° 0 mm 4 m/s 746 mmHg 58%
    16:00 +26°C° 0 mm 3 m/s 746 mmHg 62%
    17:00 +25°C° 0 mm 3 m/s 746 mmHg 66%
    18:00 +25°C° 0 mm 2 m/s 746 mmHg 70%
    19:00 +23°C° 0 mm 2 m/s 746 mmHg 73%
    20:00 +21°C° 0 mm 2 m/s 746 mmHg 75%
    21:00 +20°C° 0 mm 1 m/s 746 mmHg 78%
    22:00 +19°C° 0 mm 1 m/s 746 mmHg 76%
    23:00 +19°C° 0 mm 1 m/s 747 mmHg 74%

    20 Juin, Jeudi

    Heure Température Précipitation Vent Pression Humidité
    00:00 +18°C° 0 mm 1 m/s 747 mmHg 72%
    01:00 +17°C° 0 mm 2 m/s 747 mmHg 74%
    02:00 +16°C° 0 mm 2 m/s 747 mmHg 77%
    03:00 +16°C° 0 mm 2 m/s 747 mmHg 79%
    04:00 +18°C° 0 mm 1 m/s 747 mmHg 80%
    05:00 +18°C° 0 mm 1 m/s 748 mmHg 81%
    06:00 +19°C° 0 mm 1 m/s 748 mmHg 82%
    07:00 +21°C° 0 mm 1 m/s 748 mmHg 77%
    08:00 +22°C° 0 mm 1 m/s 748 mmHg 72%
    09:00 +24°C° 0 mm 1 m/s 748 mmHg 67%
    10:00 +25°C° 0 mm 1 m/s 748 mmHg 62%
    11:00 +26°C° 0 mm 1 m/s 748 mmHg 58%
    12:00 +27°C° 0 mm 2 m/s 748 mmHg 53%
    13:00 +27°C° 0 mm 1 m/s 748 mmHg 51%
    14:00 +27°C° 0 mm 1 m/s 748 mmHg 50%
    15:00 +28°C° 0 mm 1 m/s 748 mmHg 48%
    16:00 +27°C° 0 mm 1 m/s 748 mmHg 52%
    17:00 +27°C° 0 mm 1 m/s 748 mmHg 56%
    18:00 +27°C° 0 mm 1 m/s 748 mmHg 60%
    19:00 +25°C° 0 mm 1 m/s 748 mmHg 63%
    20:00 +23°C° 0 mm 1 m/s 748 mmHg 66%
    21:00 +21°C° 0 mm 1 m/s 748 mmHg 70%
    22:00 +21°C° 0 mm 1 m/s 748 mmHg 71%
    23:00 +20°C° 0 mm 1 m/s 748 mmHg 73%

    21 Juin, Vendredi

    Heure Température Précipitation Vent Pression Humidité
    00:00 +20°C° 0 mm 1 m/s 748 mmHg 74%
    01:00 +19°C° 0 mm 1 m/s 748 mmHg 76%
    02:00 +19°C° 0 mm 1 m/s 749 mmHg 78%
    03:00 +18°C° 0 mm 1 m/s 749 mmHg 80%
    04:00 +19°C° 0 mm 1 m/s 749 mmHg 80%
    05:00 +18°C° 0 mm 0 m/s 749 mmHg 80%
    06:00 +19°C° 0 mm 0 m/s 749 mmHg 80%
    07:00 +20°C° 0 mm 0 m/s 749 mmHg 75%
    08:00 +22°C° 0 mm 0 m/s 749 mmHg 70%
    09:00 +23°C° 0 mm 0 m/s 749 mmHg 65%
    10:00 +26°C° 0 mm 1 m/s 749 mmHg 61%
    11:00 +27°C° 0 mm 1 m/s 749 mmHg 57%
    12:00 +27°C° 0 mm 1 m/s 749 mmHg 53%
    13:00 +28°C° 0 mm 1 m/s 749 mmHg 52%
    14:00 +28°C° 0 mm 2 m/s 749 mmHg 52%
    15:00 +28°C° 0 mm 2 m/s 749 mmHg 52%
    16:00 +28°C° 0 mm 2 m/s 749 mmHg 56%
    17:00 +27°C° 0 mm 2 m/s 748 mmHg 61%
    18:00 +27°C° 0 mm 2 m/s 748 mmHg 65%
    19:00 +25°C° 0 mm 2 m/s 748 mmHg 67%
    20:00 +24°C° 0 mm 2 m/s 748 mmHg 70%
    21:00 +21°C° 0 mm 2 m/s 748 mmHg 72%
    22:00 +22°C° 0 mm 1 m/s 748 mmHg 72%
    23:00 +21°C° 0 mm 1 m/s 748 mmHg 71%

    22 Juin, Samedi

    Heure Température Précipitation Vent Pression Humidité
    00:00 +21°C° 0 mm 1 m/s 748 mmHg 71%
    01:00 +20°C° 0 mm 1 m/s 749 mmHg 73%
    02:00 +20°C° 0 mm 1 m/s 749 mmHg 74%
    03:00 +19°C° 0 mm 1 m/s 749 mmHg 76%
    04:00 +20°C° 0 mm 1 m/s 749 mmHg 77%
    05:00 +21°C° 0 mm 1 m/s 749 mmHg 78%
    06:00 +21°C° 0 mm 1 m/s 749 mmHg 79%
    07:00 +23°C° 0 mm 1 m/s 749 mmHg 75%
    08:00 +24°C° 0 mm 1 m/s 749 mmHg 70%
    09:00 +25°C° 0 mm 1 m/s 749 mmHg 65%
    10:00 +26°C° 0 mm 1 m/s 749 mmHg 62%
    11:00 +27°C° 0 mm 2 m/s 749 mmHg 58%
    12:00 +28°C° 0 mm 2 m/s 749 mmHg 54%
    13:00 +28°C° 0 mm 2 m/s 749 mmHg 55%
    14:00 +28°C° 0 mm 2 m/s 749 mmHg 56%
    15:00 +28°C° 0 mm 2 m/s 749 mmHg 57%
    16:00 +28°C° 0 mm 2 m/s 748 mmHg 60%
    17:00 +28°C° 0 mm 2 m/s 748 mmHg 63%
    18:00 +28°C° 0 mm 1 m/s 748 mmHg 65%
    19:00 +26°C° 0 mm 1 m/s 748 mmHg 68%
    20:00 +25°C° 0 mm 1 m/s 748 mmHg 70%
    21:00 +23°C° 0 mm 1 m/s 748 mmHg 73%
    22:00 +22°C° 0 mm 1 m/s 748 mmHg 73%
    23:00 +22°C° 0 mm 1 m/s 748 mmHg 73%
    Voir plus